Date_and_time,latitude,longitude,wind_speed,RelWindDirFrom,WindDirFrom,air_pressure,air_temperature,relative_humidity,Temp,platform_speed_wrt_ground,air_pressure_at_mean_sea_level,platform_orientation
2018-11-14 23:40,50.6304483333333,-96.980765,5.4,6.6,178,981.82,-0.6,86,0.91,0.0,1009.56,90.0
2018-11-14 23:50,50.6304483333333,-96.980765,6.5,7.8,170,981.59,-0.7,87,0.89,0.0,1009.32,90.0
2018-11-15 00:00,50.6304483333333,-96.980765,7.6,8.9,167,981.41,-0.7,88,0.93,0.0,1009.15,192.6
2018-11-15 00:10,50.6304483333333,-96.980765,7.1,9.1,173,981.33,-0.8,90,0.96,0.0,1009.07,192.6
2018-11-15 00:20,50.6304483333333,-96.980765,6.0,7.5,173,981.30,-0.8,90,0.94,0.0,1009.05,192.6
2018-11-15 00:30,50.6304483333333,-96.9807666666667,7.1,8.9,170,980.93,-0.9,91,0.94,0.0,1008.67,192.6
2018-11-15 00:40,50.63043,-96.9807783333333,6.2,8.0,173,980.76,-1.0,93,0.95,0.0,1008.49,192.6
2018-11-15 00:50,50.630455,-96.98078,6.1,7.8,172,980.71,-1.0,93,0.94,0.0,1008.45,192.6
2018-11-15 01:00,50.6304533333333,-96.9807733333333,4.6,5.9,167,980.66,-1.0,95,0.92,0.0,1008.40,311.7
2018-11-15 01:10,50.6304533333333,-96.9807766666667,2.8,4.2,164,980.63,-1.0,96,0.91,0.0,1008.37,311.7
2018-11-15 01:20,50.6304533333333,-96.9807733333333,2.4,3.2,167,980.69,-1.0,97,0.92,0.0,1008.43,311.7
2018-11-15 01:30,50.63044,-96.9807683333333,1.9,2.6,177,980.72,-1.0,97,0.93,0.0,1008.47,311.7
2018-11-15 01:40,50.630445,-96.9807616666667,3.2,3.9,172,980.59,-1.0,96,0.94,0.0,1008.34,311.7
2018-11-15 01:50,50.6304483333333,-96.980765,3.4,4.6,178,980.70,-1.0,97,0.95,0.0,1008.45,311.7
2018-11-15 02:00,50.6304466666667,-96.9807633333333,4.2,5.0,175,980.73,-1.0,97,0.96,0.0,1008.48,0.0
2018-11-15 02:10,50.630445,-96.98076,4.1,4.8,173,980.53,-1.0,97,0.97,0.0,1008.28,0.0
2018-11-15 02:20,50.63045,-96.98075,3.3,4.5,176,980.50,-1.0,98,0.98,0.0,1008.25,0.0
2018-11-15 02:30,50.6304466666667,-96.98076,4.2,5.2,161,980.27,-0.9,98,0.98,0.0,1008.01,0.0
2018-11-15 02:40,50.6304533333333,-96.9807683333333,3.8,4.8,167,980.22,-0.9,99,0.97,0.0,1007.97,0.0
2018-11-15 02:50,50.630455,-96.9807666666667,1.0,2.5,224,980.19,-0.8,99,0.96,0.0,1007.94,0.0
2018-11-15 03:00,50.6304516666667,-96.9807633333333,0.1,1.7,300,979.92,-0.6,99,0.95,0.0,1007.64,360.0
2018-11-15 03:10,50.6304516666667,-96.9807633333333,0.4,1.5,83,979.75,-0.4,99,0.94,0.0,1007.45,360.0
2018-11-15 03:20,50.6304533333333,-96.9807633333333,1.0,1.9,17,979.79,-0.3,99,0.96,0.0,1007.50,360.0
2018-11-15 03:30,50.6304533333333,-96.9807633333333,2.5,3.2,22,979.66,-0.4,99,0.96,0.0,1007.36,360.0
2018-11-15 03:40,50.6304516666667,-96.9807633333333,1.8,3.0,43,979.55,-0.4,100,0.94,0.0,1007.25,360.0
2018-11-15 03:50,50.6304516666667,-96.980765,3.8,5.7,122,979.29,-0.3,100,0.93,0.0,1006.98,360.0
2018-11-15 04:00,50.6304516666667,-96.980765,4.8,5.6,123,979.18,-0.3,100,0.93,0.0,1006.86,90.0
2018-11-15 04:10,50.6304516666667,-96.980765,2.1,4.1,97,979.44,-0.2,100,0.94,0.0,1007.13,90.0
2018-11-15 04:20,50.6304516666667,-96.9807666666667,2.7,3.8,135,979.39,-0.7,100,0.93,0.0,1007.09,90.0
2018-11-15 04:30,50.63045,-96.9807666666667,1.5,2.5,168,979.38,-0.9,100,0.92,0.0,1007.10,90.0
2018-11-15 04:40,50.63045,-96.9807666666667,0.6,1.1,295,979.48,-0.6,100,0.93,0.0,1007.18,90.0
2018-11-15 04:50,50.63045,-96.980765,0.2,1.4,297,979.36,-0.6,100,0.94,0.0,1007.04,90.0
2018-11-15 05:00,50.63045,-96.9807666666667,1.6,2.2,287,979.53,-0.7,100,0.94,0.0,1007.21,360.0
2018-11-15 05:10,50.63045,-96.9807666666667,2.2,3.8,222,979.52,-0.9,100,0.93,0.0,1007.21,360.0
2018-11-15 05:20,50.63045,-96.9807666666667,2.2,3.7,209,979.43,-1.2,100,0.91,0.0,1007.13,360.0
2018-11-15 05:30,50.63045,-96.9807666666667,2.7,3.7,225,979.48,-1.3,100,0.89,0.0,1007.19,360.0
2018-11-15 05:40,50.63045,-96.9807666666667,3.0,3.6,230,979.53,-1.4,100,0.89,0.0,1007.24,360.0
2018-11-15 05:50,50.63045,-96.9807666666667,3.7,4.7,212,979.51,-1.8,100,0.89,0.0,1007.25,360.0
2018-11-15 06:00,50.63045,-96.9807666666667,3.8,4.5,215,979.53,-2.2,100,0.88,0.0,1007.29,0.0
2018-11-15 06:10,50.63045,-96.9807666666667,3.0,7.9,247,979.76,-2.4,100,0.89,0.0,1007.55,0.0
2018-11-15 06:20,50.63045,-96.9807683333333,4.5,7.9,304,980.34,-2.4,100,0.88,0.0,1008.16,0.0
2018-11-15 06:30,50.6304516666667,-96.9807916666667,3.8,6.2,304,980.36,-2.6,100,0.87,0.0,1008.17,0.0
2018-11-15 06:40,50.6304466666667,-96.9807733333333,3.5,5.2,299,980.22,-2.6,100,0.87,0.0,1008.04,0.0
2018-11-15 06:50,50.630435,-96.9807683333333,4.1,6.0,315,0000.00,-2.5,100,0.87,0.0,1007.97,0.0
2018-11-15 07:00,50.630435,-96.980765,4.0,6.5,308,980.18,-2.6,100,0.89,0.0,1008.01,360.0
2018-11-15 07:10,50.6304383333333,-96.9807683333333,3.3,5.7,292,980.15,-2.7,100,0.89,0.0,1008.00,360.0
2018-11-15 07:20,50.6304383333333,-96.9807633333333,4.6,6.8,301,980.27,-2.8,100,0.90,0.0,1008.13,360.0
2018-11-15 07:30,50.63044,-96.9807616666667,5.3,7.6,300,980.33,-2.9,100,0.89,0.0,1008.20,360.0
2018-11-15 07:40,50.630445,-96.9807633333333,5.2,8.0,297,980.43,-2.9,100,0.89,0.0,1008.33,360.0
2018-11-15 07:50,50.63046,-96.9807833333333,4.0,6.3,290,980.40,-3.2,100,0.89,0.0,1008.34,360.0
2018-11-15 08:00,50.6304566666667,-96.9807716666667,4.0,5.7,292,980.46,-3.4,100,0.90,0.0,1008.42,270.0
2018-11-15 08:10,50.6304566666667,-96.9807683333333,4.0,5.7,291,980.47,-3.6,100,0.90,0.0,1008.43,270.0
2018-11-15 08:20,50.6304566666667,-96.98077,3.3,4.9,285,980.50,-3.8,100,0.90,0.0,1008.48,270.0
2018-11-15 08:30,50.6304583333333,-96.9807716666667,3.3,4.7,282,980.60,-4.1,100,0.91,0.0,1008.61,270.0
2018-11-15 08:40,50.6304583333333,-96.9807716666667,4.5,5.8,287,980.73,-4.2,100,0.91,0.0,1008.74,270.0
2018-11-15 08:50,50.6304583333333,-96.9807716666667,3.8,5.6,298,980.81,-4.1,100,0.91,0.0,1008.82,270.0
2018-11-15 09:00,50.6304566666667,-96.9807716666667,3.0,5.0,308,980.88,-4.0,100,0.92,0.0,1008.90,270.0
2018-11-15 09:10,50.6304416666667,-96.9807816666667,2.3,3.4,333,980.96,-4.0,100,0.93,0.0,1008.98,270.0
2018-11-15 09:20,50.6304433333333,-96.9807366666667,4.1,5.9,310,981.04,-4.2,100,0.93,0.0,1009.08,270.0
2018-11-15 09:30,50.6304433333333,-96.9807466666667,4.8,6.6,314,981.02,-4.2,100,0.94,0.0,1009.05,270.0
2018-11-15 09:40,50.6304416666667,-96.9807533333333,4.7,6.4,318,981.02,-4.1,100,0.95,0.0,1009.08,270.0
2018-11-15 09:50,50.6304433333333,-96.9807583333333,4.9,7.2,321,981.02,-4.3,100,0.96,0.0,1009.09,270.0
2018-11-15 10:00,50.6304483333333,-96.9807683333333,4.9,7.9,320,981.05,-4.3,100,0.96,0.0,1009.14,360.0
2018-11-15 10:10,50.6304516666667,-96.980765,3.6,6.5,318,981.02,-4.3,100,0.96,0.0,1009.12,360.0
2018-11-15 10:20,50.6304533333333,-96.9807666666667,3.4,5.2,317,980.96,-4.4,100,0.96,0.0,1009.08,360.0
2018-11-15 10:30,50.630455,-96.9807683333333,4.9,7.6,315,980.88,-4.6,100,0.96,0.0,1009.01,360.0
2018-11-15 10:40,50.6304533333333,-96.9807716666667,6.9,9.6,319,980.76,-4.4,100,0.96,0.0,1008.87,360.0
2018-11-15 10:50,50.6304433333333,-96.9807833333333,7.1,10.7,319,980.74,-4.3,99,0.97,0.0,1008.83,360.0
2018-11-15 11:00,50.6304466666667,-96.980775,6.9,8.9,315,980.73,-4.4,99,0.95,0.0,1008.84,142.0
2018-11-15 11:10,50.6304516666667,-96.9807716666667,7.0,10.5,327,980.65,-4.5,99,0.96,0.0,1008.76,142.0
2018-11-15 11:20,50.6304516666667,-96.9807683333333,8.3,11.3,332,980.57,-4.4,99,0.96,0.0,1008.67,142.0
2018-11-15 11:30,50.6304516666667,-96.9807666666667,8.5,12.0,335,980.64,-4.2,99,0.95,0.0,1008.73,142.0
2018-11-15 11:40,50.6304566666667,-96.9807616666667,8.8,12.6,333,980.75,-4.0,99,0.94,0.0,1008.84,142.0
2018-11-15 11:50,50.63046,-96.9807683333333,9.3,12.3,336,980.76,-4.1,99,0.93,0.0,1008.87,142.0
2018-11-15 12:00,50.6304583333333,-96.980775,8.4,11.7,327,981.01,-4.2,99,0.92,0.0,1009.13,360.0
2018-11-15 12:10,50.63046,-96.9807783333333,8.3,11.7,331,981.07,-4.4,99,0.92,0.0,1009.20,360.0
2018-11-15 12:20,50.6304566666667,-96.9807783333333,7.1,10.1,322,981.23,-4.6,99,0.92,0.0,1009.39,360.0
2018-11-15 12:30,50.6304583333333,-96.9807783333333,8.4,11.5,326,981.30,-4.6,99,0.93,0.0,1009.46,360.0
2018-11-15 12:40,50.6304533333333,-96.9807766666667,8.9,14.4,329,981.56,-4.7,99,0.94,0.0,1009.72,360.0
2018-11-15 12:50,50.630455,-96.98078,9.7,14.4,332,981.85,-4.8,100,0.96,0.0,1010.02,360.0
2018-11-15 13:00,50.630455,-96.980775,9.4,14.1,328,982.01,-4.9,100,0.96,0.0,1010.19,311.7
2018-11-15 13:10,50.630455,-96.9807766666667,10.3,14.2,334,982.13,-4.9,100,0.96,0.0,1010.32,311.7
2018-11-15 13:20,50.630455,-96.980775,9.9,15.3,335,982.39,-4.9,100,0.96,0.0,1010.57,311.7
2018-11-15 13:30,50.630465,-96.9808216666667,8.1,11.2,326,982.63,-4.8,100,0.97,0.0,1010.81,311.7
2018-11-15 13:40,50.6304483333333,-96.9807716666667,8.0,12.3,331,982.78,-4.7,100,0.98,0.0,1010.95,311.7
2018-11-15 13:50,50.63045,-96.980775,8.2,11.8,335,982.89,-4.5,100,0.99,0.0,1011.07,311.7
2018-11-15 14:00,50.6304466666667,-96.9807716666667,10.0,15.5,336,982.92,-4.3,100,1.00,0.0,1011.10,0.0
2018-11-15 14:10,50.6304566666667,-96.9807783333333,11.9,16.5,345,983.10,-4.2,100,1.00,0.0,1011.29,0.0
2018-11-15 14:20,50.6304516666667,-96.9807766666667,8.4,13.8,338,983.40,-4.1,100,1.01,0.0,1011.60,0.0
2018-11-15 14:30,50.6304516666667,-96.9807683333333,7.5,10.6,329,983.46,-4.2,100,1.01,0.0,1011.66,0.0
2018-11-15 14:40,50.6304516666667,-96.9807716666667,6.1,8.8,321,983.50,-4.3,101,1.01,0.0,1011.72,0.0
2018-11-15 14:50,50.6304533333333,-96.9807716666667,5.4,8.4,317,983.61,-4.4,101,1.01,0.0,1011.84,0.0
2018-11-15 15:00,50.630455,-96.98077,6.2,9.6,314,983.71,-4.4,101,1.00,0.0,1011.95,167.4
2018-11-15 15:10,50.6304533333333,-96.9807633333333,7.1,10.7,320,983.72,-4.3,101,0.98,0.0,1011.95,167.4
2018-11-15 15:20,50.6304583333333,-96.98077,5.3,7.5,307,983.91,-4.2,101,0.97,0.0,1012.13,167.4
2018-11-15 15:30,50.63046,-96.9807716666667,5.6,8.6,304,984.01,-4.1,101,0.97,0.0,1012.22,167.4
2018-11-15 15:40,50.6304566666667,-96.98077,6.8,10.0,299,984.19,-3.9,101,0.96,0.0,1012.39,167.4
2018-11-15 15:50,50.6304583333333,-96.9807683333333,8.0,13.0,297,984.28,-3.7,101,0.94,0.0,1012.47,167.4
2018-11-15 16:00,50.6304566666667,-96.98077,9.0,12.0,307,984.36,-3.5,101,0.93,0.0,1012.53,90.0
2018-11-15 16:10,50.630465,-96.9807766666667,8.5,14.2,316,984.50,-3.4,101,0.93,0.0,1012.66,90.0
2018-11-15 16:20,50.6304516666667,-96.98076,9.3,14.3,323,984.62,-3.2,101,0.92,0.0,1012.78,90.0
2018-11-15 16:30,50.6304566666667,-96.9807666666667,9.5,16.4,322,984.77,-3.2,101,0.91,0.0,1012.94,90.0
2018-11-15 16:40,50.6304616666667,-96.98077,9.3,16.8,318,984.82,-3.1,101,0.90,0.0,1012.99,90.0
2018-11-15 16:50,50.63046,-96.98077,9.7,15.2,319,984.90,-3.1,101,0.88,0.0,1013.08,90.0
2018-11-15 17:00,50.63046,-96.9807683333333,9.0,14.1,322,985.01,-3.0,101,0.85,0.0,1013.17,14.5
2018-11-15 17:10,50.63046,-96.9807683333333,9.4,17.1,322,985.07,-3.0,101,0.82,0.0,1013.23,14.5
2018-11-15 17:20,50.630455,-96.9807816666667,10.1,16.5,325,985.13,-2.9,100,0.80,0.0,1013.28,14.5
2018-11-15 17:30,50.6304583333333,-96.9807716666667,9.8,15.0,322,985.24,-2.9,100,0.78,0.0,1013.38,14.5
2018-11-15 17:40,50.6304483333333,-96.98076,10.9,16.0,320,985.15,-2.9,100,0.77,0.0,1013.28,14.5
2018-11-15 17:50,50.6304566666667,-96.9807683333333,11.6,18.2,322,985.17,-2.9,100,0.76,0.0,1013.29,14.5
2018-11-15 18:00,50.6304566666667,-96.98077,14.4,21.4,328,985.12,-2.9,100,0.75,0.0,1013.23,0.0
2018-11-15 18:10,50.6304566666667,-96.98077,13.5,21.0,340,985.27,-2.9,100,0.78,0.0,1013.38,0.0
2018-11-15 18:20,50.630455,-96.98077,11.2,15.8,320,985.25,-3.1,100,0.81,0.0,1013.36,0.0
2018-11-15 18:30,50.630455,-96.98077,11.8,19.7,319,985.28,-3.2,100,0.84,0.0,1013.40,0.0
2018-11-15 18:40,50.630455,-96.98077,12.4,18.3,319,985.31,-3.3,100,0.86,0.0,1013.44,0.0
2018-11-15 18:50,50.6304566666667,-96.9807716666667,12.3,20.7,321,985.32,-3.4,100,0.87,0.0,1013.44,0.0
2018-11-15 19:00,50.6304566666667,-96.9807716666667,13.2,22.5,321,985.37,-3.5,100,0.88,0.0,1013.50,270.0
2018-11-15 19:10,50.6304566666667,-96.9807716666667,12.9,19.5,323,985.47,-3.5,99,0.88,0.0,1013.60,270.0
2018-11-15 19:20,50.630455,-96.9807733333333,12.8,20.0,317,985.57,-3.7,99,0.88,0.0,1013.71,270.0
2018-11-15 19:30,50.6304566666667,-96.9807733333333,12.8,19.3,317,985.59,-3.8,99,0.87,0.0,1013.73,270.0
2018-11-15 19:40,50.6304566666667,-96.9807716666667,12.2,19.4,320,985.68,-3.9,99,0.87,0.0,1013.83,270.0
2018-11-15 19:50,50.6304566666667,-96.9807716666667,13.8,19.3,322,985.73,-3.9,99,0.87,0.0,1013.89,270.0
2018-11-15 20:00,50.6304566666667,-96.9807716666667,11.9,17.6,320,985.93,-3.9,99,0.87,0.0,1014.09,192.6
2018-11-15 20:10,50.6304583333333,-96.98077,10.4,14.9,319,986.02,-3.8,99,0.88,0.0,1014.19,192.6
2018-11-15 20:20,50.6304516666667,-96.9807366666667,11.1,16.8,318,986.17,-3.7,99,0.89,0.0,1014.35,192.6
2018-11-15 20:30,50.630455,-96.9807483333333,11.8,17.9,329,986.19,-3.7,98,0.90,0.0,1014.37,192.6
2018-11-15 20:40,50.6304533333333,-96.980755,12.6,18.8,324,986.11,-3.6,96,0.90,0.0,1014.29,192.6
2018-11-15 20:50,50.630455,-96.9807566666667,11.0,17.8,320,986.26,-3.8,98,0.90,0.0,1014.46,192.6
2018-11-15 21:00,50.630455,-96.9807566666667,10.8,15.7,321,986.39,-3.8,97,0.90,0.0,1014.59,90.0
2018-11-15 21:10,50.6304533333333,-96.9807566666667,10.9,18.4,325,986.44,-3.8,95,0.89,0.0,1014.65,90.0
2018-11-15 21:20,50.630435,-96.9807733333333,13.1,19.3,323,986.43,-3.8,93,0.89,0.0,1014.65,90.0
2018-11-15 21:30,50.6304466666667,-96.9807666666667,12.7,18.1,318,986.62,-4.0,94,0.88,0.0,1014.86,90.0
2018-11-15 21:40,50.6304516666667,-96.98077,12.3,19.4,315,986.79,-4.2,97,0.88,0.0,1015.04,90.0
2018-11-15 21:50,50.6304533333333,-96.9807666666667,13.5,19.8,319,986.92,-4.4,99,0.89,0.0,1015.19,90.0
2018-11-15 22:00,50.6304533333333,-96.980765,12.2,16.8,316,987.28,-4.5,98,0.90,0.0,1015.57,90.0
2018-11-15 22:10,50.6304533333333,-96.980765,12.1,17.9,318,987.44,-4.6,97,0.89,0.0,1015.73,90.0
2018-11-15 22:20,50.630455,-96.980765,12.4,21.4,322,987.56,-4.7,95,0.90,0.0,1015.85,90.0
2018-11-15 22:30,50.6304566666667,-96.9807666666667,11.6,16.6,315,987.67,-4.9,92,0.91,0.0,1015.98,90.0
2018-11-15 22:40,50.6304566666667,-96.9807666666667,11.2,17.2,321,987.82,-5.0,91,0.91,0.0,1016.14,90.0
2018-11-15 22:50,50.6304566666667,-96.9807666666667,11.3,18.2,321,987.91,-5.1,91,0.89,0.0,1016.25,90.0
2018-11-15 23:00,50.630455,-96.9807666666667,11.6,16.6,315,988.04,-5.3,89,0.87,0.0,1016.38,90.0
2018-11-15 23:10,50.6304566666667,-96.9807683333333,11.4,16.7,311,988.22,-5.4,88,0.84,0.0,1016.57,90.0
2018-11-15 23:20,50.6304833333333,-96.9807633333333,10.6,19.7,313,988.40,-5.5,87,0.82,0.0,1016.78,90.0
2018-11-15 23:30,50.63046,-96.9807683333333,11.3,16.1,316,988.48,-5.7,86,0.81,0.0,1016.88,90.0
2018-11-15 23:40,50.6304566666667,-96.9807666666667,12.5,18.9,317,988.54,-5.8,86,0.80,0.0,1016.97,90.0
2018-11-15 23:50,50.6304566666667,-96.9807666666667,10.4,17.9,315,988.77,-6.0,86,0.80,0.0,1017.21,90.0
